When you browse on this site, cookies collect data to enhance your experience and personalize the content and advertising you see.
Visit our Privacy Policy to learn more. By continuing to use the site, you agree to this use of cookies and data.
  • In Czech Republic
  • List of Countries
  • For 7 days
  • Water Temperature
  • Satellite Maps
  • Weather Map
  • Weather Widgets
  • user-avatar
    Login

    Hourly Weather Milford

    Today, 20 April, Saturday

    Time Temperature Precipitation Wind Pressure Humidity
    00:00 +20°C° 0.2 mm 6 mps 747 mmHg 88%
    01:00 +18°C° 0 mm 8 mps 747 mmHg 89%
    02:00 +18°C° 0.3 mm 7 mps 747 mmHg 89%
    03:00 +19°C° 0.3 mm 6 mps 747 mmHg 89%
    04:00 +19°C° 0.3 mm 5 mps 747 mmHg 89%
    05:00 +20°C° 0.5 mm 5 mps 748 mmHg 90%
    06:00 +20°C° 0.5 mm 5 mps 748 mmHg 90%
    07:00 +20°C° 0.5 mm 5 mps 749 mmHg 90%
    08:00 +20°C° 0.6 mm 5 mps 749 mmHg 89%
    09:00 +20°C° 0.6 mm 6 mps 749 mmHg 88%
    10:00 +20°C° 0.6 mm 6 mps 749 mmHg 86%
    11:00 +20°C° 3.1 mm 6 mps 749 mmHg 87%
    12:00 +20°C° 3.1 mm 7 mps 749 mmHg 88%
    13:00 +20°C° 3.1 mm 7 mps 749 mmHg 89%
    14:00 +20°C° 1.7 mm 7 mps 749 mmHg 89%
    15:00 +20°C° 1.7 mm 7 mps 749 mmHg 89%
    16:00 +20°C° 1.7 mm 7 mps 749 mmHg 89%
    17:00 +20°C° 0.1 mm 7 mps 749 mmHg 90%
    18:00 +20°C° 0.1 mm 6 mps 750 mmHg 90%
    19:00 +19°C° 0.1 mm 6 mps 750 mmHg 90%
    20:00 +17°C° 0.1 mm 6 mps 750 mmHg 89%
    21:00 +17°C° 0.1 mm 5 mps 751 mmHg 89%
    22:00 +17°C° 0.1 mm 4 mps 751 mmHg 88%
    23:00 +15°C° 0.1 mm 4 mps 751 mmHg 85%

    Tomorrow, 21 April, Sunday

    Time Temperature Precipitation Wind Pressure Humidity
    00:00 +14°C° 0.1 mm 4 mps 752 mmHg 81%
    01:00 +14°C° 0.1 mm 3 mps 752 mmHg 78%
    02:00 +14°C° 0.2 mm 2 mps 752 mmHg 80%
    03:00 +14°C° 0.2 mm 2 mps 752 mmHg 82%
    04:00 +13°C° 0.2 mm 1 mps 752 mmHg 84%
    05:00 +14°C° 0 mm 1 mps 752 mmHg 84%
    06:00 +14°C° 0 mm 1 mps 752 mmHg 84%
    07:00 +14°C° 0 mm 1 mps 752 mmHg 83%
    08:00 +15°C° 0 mm 1 mps 753 mmHg 78%
    09:00 +17°C° 0 mm 2 mps 753 mmHg 73%
    10:00 +18°C° 0 mm 2 mps 753 mmHg 68%
    11:00 +17°C° 0 mm 2 mps 753 mmHg 71%
    12:00 +17°C° 0 mm 2 mps 754 mmHg 73%
    13:00 +18°C° 0 mm 1 mps 754 mmHg 76%
    14:00 +16°C° 0.2 mm 1 mps 754 mmHg 79%
    15:00 +16°C° 0.2 mm 1 mps 754 mmHg 81%
    16:00 +16°C° 0.2 mm 1 mps 754 mmHg 84%
    17:00 +15°C° 0 mm 1 mps 754 mmHg 86%
    18:00 +15°C° 0 mm 1 mps 754 mmHg 89%
    19:00 +14°C° 0 mm 1 mps 754 mmHg 91%
    20:00 +14°C° 0 mm 1 mps 754 mmHg 92%
    21:00 +13°C° 0 mm 1 mps 755 mmHg 93%
    22:00 +12°C° 0 mm 0 mps 755 mmHg 94%
    23:00 +12°C° 0 mm 0 mps 754 mmHg 93%

    Day after tomorrow, 22 April, Monday

    Time Temperature Precipitation Wind Pressure Humidity
    00:00 +13°C° 0 mm 1 mps 754 mmHg 91%
    01:00 +13°C° 0 mm 1 mps 754 mmHg 90%
    02:00 +12°C° 0 mm 1 mps 753 mmHg 91%
    03:00 +12°C° 0 mm 1 mps 753 mmHg 92%
    04:00 +11°C° 0 mm 1 mps 753 mmHg 93%
    05:00 +12°C° 0 mm 1 mps 753 mmHg 88%
    06:00 +13°C° 0 mm 1 mps 754 mmHg 83%
    07:00 +14°C° 0 mm 1 mps 754 mmHg 78%
    08:00 +18°C° 0 mm 1 mps 754 mmHg 68%
    09:00 +21°C° 0 mm 1 mps 754 mmHg 59%
    10:00 +23°C° 0 mm 1 mps 754 mmHg 49%
    11:00 +23°C° 0 mm 0 mps 754 mmHg 45%
    12:00 +24°C° 0 mm 0 mps 754 mmHg 42%
    13:00 +26°C° 0 mm 0 mps 754 mmHg 38%
    14:00 +25°C° 0 mm 0 mps 753 mmHg 39%
    15:00 +26°C° 0 mm 1 mps 753 mmHg 40%
    16:00 +25°C° 0 mm 1 mps 752 mmHg 42%
    17:00 +23°C° 0 mm 1 mps 753 mmHg 51%
    18:00 +20°C° 0 mm 2 mps 753 mmHg 60%
    19:00 +18°C° 0 mm 2 mps 753 mmHg 69%
    20:00 +17°C° 0 mm 2 mps 753 mmHg 73%
    21:00 +16°C° 0 mm 2 mps 753 mmHg 77%
    22:00 +15°C° 0 mm 1 mps 753 mmHg 81%
    23:00 +15°C° 0 mm 2 mps 753 mmHg 83%

    23 April, Tuesday

    Time Temperature Precipitation Wind Pressure Humidity
    00:00 +14°C° 0 mm 2 mps 753 mmHg 86%
    01:00 +14°C° 0 mm 2 mps 753 mmHg 89%
    02:00 +13°C° 0 mm 2 mps 753 mmHg 90%
    03:00 +13°C° 0 mm 2 mps 753 mmHg 91%
    04:00 +12°C° 0 mm 2 mps 753 mmHg 92%
    05:00 +13°C° 0 mm 2 mps 753 mmHg 88%
    06:00 +13°C° 0 mm 2 mps 754 mmHg 85%
    07:00 +13°C° 0 mm 2 mps 754 mmHg 81%
    08:00 +14°C° 0 mm 2 mps 754 mmHg 76%
    09:00 +16°C° 0 mm 2 mps 754 mmHg 70%
    10:00 +17°C° 0 mm 3 mps 754 mmHg 65%
    11:00 +18°C° 0 mm 2 mps 754 mmHg 62%
    12:00 +19°C° 0 mm 2 mps 753 mmHg 59%
    13:00 +20°C° 0 mm 2 mps 753 mmHg 56%
    14:00 +21°C° 0 mm 1 mps 753 mmHg 56%
    15:00 +21°C° 0 mm 1 mps 752 mmHg 57%
    16:00 +21°C° 0 mm 1 mps 752 mmHg 57%
    17:00 +19°C° 0 mm 1 mps 752 mmHg 64%
    18:00 +16°C° 0 mm 2 mps 752 mmHg 72%
    19:00 +14°C° 0 mm 2 mps 752 mmHg 79%
    20:00 +13°C° 0 mm 2 mps 752 mmHg 83%
    21:00 +13°C° 0 mm 2 mps 751 mmHg 87%
    22:00 +12°C° 0 mm 2 mps 751 mmHg 91%
    23:00 +11°C° 0 mm 3 mps 751 mmHg 91%

    24 April, Wednesday

    Time Temperature Precipitation Wind Pressure Humidity
    00:00 +10°C° 0 mm 3 mps 750 mmHg 91%
    01:00 +10°C° 0 mm 3 mps 750 mmHg 91%
    02:00 +11°C° 0.5 mm 3 mps 749 mmHg 91%
    03:00 +11°C° 0.5 mm 4 mps 748 mmHg 91%
    04:00 +11°C° 0.5 mm 4 mps 747 mmHg 92%
    05:00 +12°C° 0.4 mm 4 mps 747 mmHg 91%
    06:00 +13°C° 0.4 mm 4 mps 746 mmHg 91%
    07:00 +13°C° 0.4 mm 4 mps 745 mmHg 91%
    08:00 +15°C° 0.1 mm 4 mps 745 mmHg 89%
    09:00 +17°C° 0.1 mm 4 mps 745 mmHg 87%
    10:00 +18°C° 0.1 mm 4 mps 744 mmHg 85%
    11:00 +19°C° 0 mm 5 mps 744 mmHg 70%
    12:00 +20°C° 0 mm 5 mps 744 mmHg 55%
    13:00 +21°C° 0 mm 6 mps 744 mmHg 40%
    14:00 +21°C° 0 mm 6 mps 744 mmHg 41%
    15:00 +20°C° 0 mm 6 mps 744 mmHg 42%
    16:00 +19°C° 0 mm 6 mps 744 mmHg 43%
    17:00 +16°C° 0 mm 5 mps 745 mmHg 50%
    18:00 +14°C° 0 mm 4 mps 745 mmHg 56%
    19:00 +13°C° 0 mm 3 mps 746 mmHg 63%
    20:00 +12°C° 0 mm 3 mps 746 mmHg 66%
    21:00 +11°C° 0 mm 3 mps 746 mmHg 68%
    22:00 +9°C° 0 mm 3 mps 747 mmHg 71%
    23:00 +9°C° 0 mm 2 mps 747 mmHg 72%

    25 April, Thursday

    Time Temperature Precipitation Wind Pressure Humidity
    00:00 +8°C° 0 mm 2 mps 747 mmHg 74%
    01:00 +7°C° 0 mm 2 mps 747 mmHg 75%
    02:00 +7°C° 0 mm 2 mps 747 mmHg 77%
    03:00 +6°C° 0 mm 2 mps 747 mmHg 79%
    04:00 +5°C° 0 mm 2 mps 747 mmHg 81%
    05:00 +6°C° 0 mm 2 mps 748 mmHg 74%
    06:00 +7°C° 0 mm 3 mps 748 mmHg 67%
    07:00 +8°C° 0 mm 3 mps 748 mmHg 60%
    08:00 +10°C° 0 mm 3 mps 748 mmHg 54%
    09:00 +12°C° 0 mm 3 mps 749 mmHg 48%
    10:00 +14°C° 0 mm 3 mps 749 mmHg 42%
    11:00 +16°C° 0 mm 3 mps 748 mmHg 39%
    12:00 +17°C° 0 mm 3 mps 748 mmHg 36%
    13:00 +19°C° 0 mm 3 mps 748 mmHg 34%
    14:00 +19°C° 0 mm 2 mps 748 mmHg 34%
    15:00 +19°C° 0 mm 2 mps 748 mmHg 34%
    16:00 +20°C° 0 mm 2 mps 748 mmHg 34%
    17:00 +18°C° 0 mm 2 mps 748 mmHg 40%
    18:00 +16°C° 0 mm 1 mps 749 mmHg 47%
    19:00 +14°C° 0 mm 1 mps 749 mmHg 54%
    20:00 +13°C° 0 mm 1 mps 749 mmHg 58%
    21:00 +11°C° 0 mm 1 mps 750 mmHg 63%
    22:00 +9°C° 0 mm 0 mps 750 mmHg 67%
    23:00 +10°C° 0 mm 1 mps 750 mmHg 68%
    Show more